Temp: 11.4°C   Baro: 1011.4mb
  Wind: 0.0mph   Dir: NW (322°)
  Rain: 0.0mm (0.0mm/hr)
  Solar: 0W/m2  Hum: 90%
 
Bath Spa Weather Station Historical Data
 
Daily Summary for September 22, 2020 Units:  Metric    English   Both
Daily Weekly Monthly Yearly Custom
  Current: High: Low: Average:
Temperature: 11.4 °C 14.8 °C 11.4 °C 12.8 °C
Dew Point: 10.2 °C 13.1 °C 10.2 °C 11.4 °C
Humidity: 89.4% 90% 87% 88%
Wind Speed: 0km/h 0km/h 0km/h 0km/h
Wind Gust: 0km/h 0km/h - -
WindCalm - -
Pressure: 1011.4 hPa 1014.8 hPa 1011.4 hPa -
Precipitation: 0 mm      
Historical Graphs
 
 
Tabular Data for September 22, 2020
Time Temperature Dew Point Pressure Wind Wind Speed Wind Gust Humidity Rainfall Rate (Hourly) solar
00:04 14.8 °C 13.1 °C 1014.8 hPa Calm     87% 0 mm 0 W/m2
00:09 14.7 °C 13.1 °C 1014.8 hPa Calm     87% 0 mm 0 W/m2
00:14 14.6 °C 13.1 °C 1014.4 hPa Calm     87.6% 0 mm 0 W/m2
00:19 14.6 °C 13 °C 1014.4 hPa Calm     87.8% 0 mm 0 W/m2
00:24 14.4 °C 12.9 °C 1014.4 hPa Calm     88% 0 mm 0 W/m2
00:29 14.3 °C 12.8 °C 1014.4 hPa Calm     88% 0 mm 0 W/m2
00:34 14.3 °C 12.8 °C 1014.4 hPa Calm     88% 0 mm 0 W/m2
00:39 14.3 °C 12.8 °C 1014.4 hPa Calm     88% 0 mm 0 W/m2
00:44 14.3 °C 12.8 °C 1014.4 hPa Calm     88% 0 mm 0 W/m2
00:49 14.3 °C 12.8 °C 1014.4 hPa Calm     88% 0 mm 0 W/m2
00:54 14.2 °C 12.7 °C 1014.4 hPa Calm     88% 0 mm 0 W/m2
00:59 14.1 °C 12.6 °C 1014.4 hPa Calm     88% 0 mm 0 W/m2
01:04 13.9 °C 12.4 °C 1014.1 hPa Calm     88% 0 mm 0 W/m2
01:09 13.8 °C 12.3 °C 1014.1 hPa Calm     88% 0 mm 0 W/m2
01:14 13.8 °C 12.3 °C 1014.1 hPa Calm     88% 0 mm 0 W/m2
01:19 13.8 °C 12.3 °C 1014.1 hPa Calm     88% 0 mm 0 W/m2
01:24 13.7 °C 12.2 °C 1014.1 hPa Calm     88% 0 mm 0 W/m2
01:29 13.6 °C 12.1 °C 1014.1 hPa Calm     88% 0 mm 0 W/m2
01:39 13.3 °C 11.8 °C 1013.8 hPa Calm     88% 0 mm 0 W/m2
01:44 13.2 °C 11.7 °C 1013.8 hPa Calm     88% 0 mm 0 W/m2
01:49 13.2 °C 11.7 °C 1013.8 hPa Calm     88% 0 mm 0 W/m2
01:54 13.2 °C 11.7 °C 1013.8 hPa Calm     88% 0 mm 0 W/m2
01:59 13.2 °C 11.7 °C 1013.8 hPa Calm     88% 0 mm 0 W/m2
02:04 13.2 °C 11.7 °C 1013.8 hPa Calm     88% 0 mm 0 W/m2
02:09 13.2 °C 11.7 °C 1013.8 hPa Calm     88% 0 mm 0 W/m2
02:14 13.2 °C 11.7 °C 1013.4 hPa Calm     88% 0 mm 0 W/m2
02:19 13.1 °C 11.6 °C 1013.4 hPa Calm     88% 0 mm 0 W/m2
02:24 13.1 °C 11.6 °C 1013.4 hPa Calm     88% 0 mm 0 W/m2
02:29 12.9 °C 11.6 °C 1013.4 hPa Calm     88% 0 mm 0 W/m2
02:34 12.9 °C 11.5 °C 1013.4 hPa Calm     88% 0 mm 0 W/m2
02:39 12.8 °C 11.4 °C 1013.4 hPa Calm     88% 0 mm 0 W/m2
02:44 12.8 °C 11.4 °C 1013.4 hPa Calm     88% 0 mm 0 W/m2
02:49 12.8 °C 11.4 °C 1013.1 hPa Calm     88% 0 mm 0 W/m2
02:54 12.7 °C 11.3 °C 1013.1 hPa Calm     88% 0 mm 0 W/m2
02:59 12.7 °C 11.3 °C 1013.1 hPa Calm     88% 0 mm 0 W/m2
03:04 12.7 °C 11.3 °C 1013.1 hPa Calm     88% 0 mm 0 W/m2
03:09 12.7 °C 11.3 °C 1013.1 hPa Calm     88% 0 mm 0 W/m2
03:14 12.7 °C 11.3 °C 1013.1 hPa Calm     88% 0 mm 0 W/m2
03:19 12.7 °C 11.2 °C 1013.1 hPa Calm     88% 0 mm 0 W/m2
03:24 12.6 °C 11.2 °C 1012.8 hPa Calm     88% 0 mm 0 W/m2
03:29 12.6 °C 11.2 °C 1012.8 hPa Calm     88% 0 mm 0 W/m2
03:34 12.4 °C 11.1 °C 1012.8 hPa Calm     88% 0 mm 0 W/m2
03:39 12.4 °C 11 °C 1012.8 hPa Calm     88% 0 mm 0 W/m2
03:44 12.3 °C 10.9 °C 1012.4 hPa Calm     88% 0 mm 0 W/m2
03:49 12.3 °C 10.8 °C 1012.4 hPa Calm     88% 0 mm 0 W/m2
03:54 12.2 °C 10.9 °C 1012.4 hPa Calm     88.6% 0 mm 0 W/m2
03:59 12.2 °C 10.9 °C 1012.4 hPa Calm     89% 0 mm 0 W/m2
04:04 12.2 °C 10.9 °C 1012.4 hPa Calm     89% 0 mm 0 W/m2
04:09 12.2 °C 10.9 °C 1012.1 hPa Calm     89% 0 mm 0 W/m2
04:14 12.2 °C 10.8 °C 1012.1 hPa Calm     88.6% 0 mm 0 W/m2
04:19 12.2 °C 10.8 °C 1012.1 hPa Calm     88% 0 mm 0 W/m2
04:24 12.2 °C 10.8 °C 1012.1 hPa Calm     88% 0 mm 0 W/m2
04:29 12.1 °C 10.7 °C 1012.1 hPa Calm     88% 0 mm 0 W/m2
04:34 12.1 °C 10.7 °C 1012.1 hPa Calm     88.4% 0 mm 0 W/m2
04:39 12 °C 10.7 °C 1012.1 hPa Calm     89% 0 mm 0 W/m2
04:44 11.9 °C 10.7 °C 1012.1 hPa Calm     89% 0 mm 0 W/m2
04:49 11.9 °C 10.6 °C 1012.1 hPa Calm     89% 0 mm 0 W/m2
04:54 11.9 °C 10.6 °C 1012.1 hPa Calm     89% 0 mm 0 W/m2
04:59 11.9 °C 10.6 °C 1012.1 hPa Calm     89% 0 mm 0 W/m2
05:04 11.8 °C 10.6 °C 1011.7 hPa Calm     89% 0 mm 0 W/m2
05:09 11.8 °C 10.5 °C 1011.7 hPa Calm     89% 0 mm 0 W/m2
05:14 11.7 °C 10.4 °C 1011.7 hPa Calm     89% 0 mm 0 W/m2
05:19 11.7 °C 10.4 °C 1011.7 hPa Calm     89% 0 mm 0 W/m2
05:24 11.6 °C 10.3 °C 1011.7 hPa Calm     89% 0 mm 0 W/m2
05:29 11.6 °C 10.3 °C 1011.7 hPa Calm     89% 0 mm 0 W/m2
05:34 11.6 °C 10.3 °C 1011.7 hPa Calm     89% 0 mm 0 W/m2
05:39 11.6 °C 10.3 °C 1011.7 hPa Calm     89% 0 mm 0 W/m2
05:44 11.6 °C 10.3 °C 1011.7 hPa Calm     89% 0 mm 0 W/m2
05:49 11.5 °C 10.4 °C 1011.7 hPa Calm     89.8% 0 mm 0 W/m2
05:54 11.5 °C 10.4 °C 1011.4 hPa Calm     90% 0 mm 0 W/m2
05:59 11.5 °C 10.3 °C 1011.4 hPa Calm     89.4% 0 mm 0 W/m2
06:04 11.4 °C 10.2 °C 1011.4 hPa Calm     89% 0 mm 0 W/m2
06:09 11.4 °C 10.2 °C 1011.4 hPa Calm     89.4% 0 mm 0 W/m2
Bath Spa Weather
Compliments of Weather Underground - 2 mb